Location: Kreisstadt Sankt Wendel
(49.4663°N, 7.1681°E)
Time: 12:32:47
(UTC+00:00)

Daily predictions for brighter satellites

Satellite Brightness Start Highest point End
(mag) Time Altitude Azimuth Time Altitude Azimuth Time Altitude Azimuth
Cosmos 1980 Rocket 2.3 19:18:55 10° NNW 19:24:37 69° ENE 19:30:14 10° SE
OBJECT-B 0.9 19:21:59 10° SSE 19:25:13 60° ENE 19:28:30 10° N
CZ-2C R/B 4.1 19:24:06 10° NNE 19:28:28 42° E 19:32:45 10° S
Intercosmos 25 3.1 19:25:28 10° N 19:29:34 81° ENE 19:32:48 10° SSE
Cosmos 2228 Rocket 4.4 19:26:14 10° NNW 19:30:26 43° W 19:34:35 10° SSW
Cosmos 614 Rocket 4.1 19:25:36 10° SSW 19:30:47 85° WNW 19:36:03 10° NNE
Cosmos 1833 Rocket 2.7 19:31:11 10° SSW 19:36:49 89° ESE 19:42:29 10° NNE
NOSS 3-2 (A) 3.8 19:31:43 10° S 19:36:58 39° ESE 19:42:52 10° NE
Meteor 1-4 Rocket 2.5 19:33:53 10° N 19:37:20 59° ENE 19:40:44 10° SSE
Cosmos 1697 Rocket 3.3 19:32:23 10° NW 19:37:53 58° WSW 19:43:22 10° S
Cosmos 1184 Rocket 3.8 19:35:01 10° SSE 19:37:54 28° E 19:40:48 10° NNE
SJ-6B 3.7 19:34:09 10° S 19:38:04 52° W 19:41:58 10° NNW
Cosmos 1862 3.9 19:34:16 10° SSW 19:38:17 62° WNW 19:42:21 10° N
Sich 1 3.1 19:35:10 10° S 19:39:36 85° ESE 19:44:04 10° N
USA 267 4.0 19:34:33 10° ENE 19:40:01 27° SE 19:45:25 10° S
H-2A R/B 4.1 19:38:07 10° SSW 19:42:27 28° W 19:46:44 10° NW
SPOT 5 4.5 19:41:10 10° E 19:43:54 17° ENE 19:46:41 10° NNE
Cosmos 405 Rocket 4.1 19:42:21 10° SE 19:45:06 20° E 19:47:54 10° NE
Cosmos 389 Rocket 4.3 19:42:52 10° NNW 19:45:58 31° W 19:49:06 10° SSW
Cosmos 1862 Rocket 3.8 19:41:56 10° N 19:46:20 53° ENE 19:50:39 10° SSE
NOSS 3-2 (C) 4.1 19:41:36 10° S 19:46:27 29° ESE 19:51:49 10° NE
Cosmos 1437 Rocket 4.3 19:44:44 10° NNE 19:47:33 19° ENE 19:49:58 12° ESE
Cosmos 1812 3.9 19:43:58 10° NNW 19:47:40 45° W 19:51:20 10° SSW
SPOT 1/Viking Rocket 4.4 19:45:04 11° SE 19:49:39 35° ENE 19:54:21 10° N
Cosmos 1934 Rocket 4.1 19:44:40 10° S 19:50:56 63° E 19:57:13 10° NNE
Cosmos 2333 Rocket 4.4 19:48:34 10° N 19:51:42 15° NNE 19:54:50 10° ENE
Landsat 7 4.5 19:48:45 11° SE 19:52:59 40° ENE 19:57:26 10° N
Resurs 01 Rocket 1.6 19:48:34 10° SSE 19:52:59 78° ENE 19:57:27 10° NNW
USA 32 4.5 19:49:00 10° SSE 19:53:54 43° E 19:58:50 10° NNE
NOSS 2 (A) 4.1 19:52:03 10° NW 19:54:41 75° SW 19:56:24 17° SE
Cosmos 676 Rocket 4.0 19:53:28 10° S 19:58:43 64° ESE 20:04:01 10° NNE
Meteor 1-27 Rocket 4.3 19:53:40 10° NNW 19:59:33 66° W 20:05:25 10° S
ERS-1 Rocket 4.1 19:56:12 13° ESE 19:59:56 29° ENE 20:04:13 10° N
GP-B 3.4 19:56:23 10° NNE 20:00:43 48° E 20:04:54 11° SSE
Okean 1 4.1 19:59:35 10° N 20:03:24 37° ENE 20:06:08 17° SE
Cosmos 192 4.5 20:00:49 10° NNW 20:05:44 77° WSW 20:10:31 11° SSE
SPOT 3 Rocket 4.1 20:03:45 10° S 20:08:52 59° WSW 20:14:02 10° NNW
BREEZE-M DEB (TANK) 1.5 20:07:51 10° W 20:10:42 87° SSW 20:11:49 22° E
Cosmos 468 Rocket 4.2 20:06:08 10° NNW 20:11:25 63° ENE 20:15:29 17° SE
Cosmos 1867 3.6 20:06:32 10° SW 20:11:59 90° SE 20:17:30 10° NE
Cosmos 1933 Rocket 4.0 20:10:14 12° SSE 20:14:01 43° E 20:18:15 10° NNE
Cosmos 1666 Rocket 4.0 20:10:12 10° SSW 20:14:29 64° WNW 20:18:50 10° N
SL-4 R/B 1.9 20:12:04 10° W 20:16:04 77° NNW 20:19:45 10° ENE
ATLAS 3B R/B 3.8 20:14:38 16° SE 20:16:59 19° ESE 20:21:27 10° ENE
USA 234 3.5 20:10:47 11° ESE 20:17:02 66° NNE 20:23:30 10° WNW
IGS 5A 3.5 20:15:48 17° SSE 20:18:53 66° ENE 20:23:02 10° N
Meteor 2-4 Rocket 4.4 20:15:43 10° N 20:20:57 37° ENE 20:24:18 19° SE
MetOp-B 4.2 20:22:39 12° SSE 20:27:38 80° WSW 20:33:02 10° NNW
Cosmos 1954 Rocket 4.2 20:23:02 10° SSW 20:28:22 79° WNW 20:33:44 10° NNE
Spot 2 Rocket 3.5 20:25:34 16° SSE 20:29:38 83° ENE 20:34:46 10° NNW
SL-16 R/B 2.3 20:24:48 10° NNW 20:30:29 69° ENE 20:34:14 22° SE
Cosmos 2219 Rocket 4.1 20:26:30 10° N 20:30:35 20° NE 20:34:38 10° E
CZ-2C R/B 4.1 20:25:59 10° N 20:30:45 38° WNW 20:35:33 10° SW
Cosmos 1741 Rocket 4.2 20:28:06 10° S 20:33:07 48° ESE 20:38:13 10° NNE
Okean 1-7 3.3 20:29:34 10° N 20:33:49 52° ENE 20:36:00 26° SE
Cosmos 1703 Rocket 3.6 20:30:36 10° N 20:34:55 60° ENE 20:37:16 25° SSE
USA 238 DEB 3.6 20:29:17 10° SW 20:35:56 84° SE 20:42:54 10° NE
USA 238 3.6 20:29:24 10° SW 20:36:04 84° SE 20:43:01 10° NE
ATLAS 5 CENTAUR R/B 2.9 20:34:26 10° NNW 20:36:41 31° NE 20:39:34 16° E
Cosmos 1570 Rocket 4.4 20:34:28 10° NNW 20:39:43 54° ENE 20:42:42 25° SE
Meteor 1-18 Rocket 4.1 20:34:23 10° NNW 20:40:00 87° ENE 20:44:01 20° SSE
Cosmos 2082 Rocket 3.0 20:35:32 10° SW 20:41:06 54° NW 20:46:41 10° NNE
Meteor 1-25 Rocket 4.2 20:36:43 10° SSW 20:42:18 85° WNW 20:47:59 10° N
Terra 2.5 20:40:06 24° ESE 20:42:24 40° ENE 20:46:51 10° N
Lacrosse 5 2.1 20:37:52 10° WNW 20:42:53 62° SW 20:45:36 26° SSE
Cosmos 1633 Rocket 4.4 20:39:05 10° SW 20:43:15 41° WNW 20:47:28 10° N
Cosmos 1238 Rocket 2.4 20:44:11 20° SSW 20:46:04 65° W 20:49:04 10° N
USA 276 2.0 20:43:13 10° W 20:46:24 68° SSW 20:47:07 47° SE
CENTAUR R/B 2.5 20:40:34 10° SSW 20:46:27 65° SE 20:53:29 10° NE
Cosmos 1605 Rocket 4.0 20:41:18 10° SSW 20:47:25 80° W 20:53:33 10° N
Cosmos 2208 Rocket 4.3 20:43:20 10° NNW 20:48:30 53° ENE 20:51:06 27° SE
Cosmos 2100 Rocket 4.3 20:45:27 23° SSE 20:48:58 46° E 20:54:48 10° NNE
Cosmos 1763 Rocket 3.6 20:43:52 10° NNW 20:49:13 78° WSW 20:52:27 24° SSE
Cosmos 2322 Rocket 2.2 20:43:32 10° NNW 20:49:16 78° ENE 20:52:29 27° SE
X-37B 1.7 20:47:44 10° WSW 20:50:24 30° SSW 20:50:24 30° SSW
Cosmos 921 Rocket 4.3 20:51:00 10° NW 20:54:49 34° WSW 20:57:44 15° SSW
FALCON 9 DEB 4.0 20:52:09 10° W 20:55:35 51° N 20:58:46 12° ENE
Cosmos 2173 Rocket 4.2 20:52:59 25° SSE 20:56:18 49° E 21:02:09 10° NNE
H-2A R/B 4.0 20:52:25 10° N 20:56:28 57° WNW 21:00:32 10° SSW
Cosmos 2237 4.5 20:51:26 10° NNW 20:57:05 58° NE 20:59:59 28° SE
Cosmos 2084 Rocket 3.3 20:54:15 10° SSW 20:58:24 63° SE 21:02:40 10° NE
Cosmos 2242 Rocket 4.0 20:54:40 10° NNW 20:59:02 59° W 21:01:46 22° SSW
Cosmos 2360 Rocket 2.5 20:54:16 10° NNW 20:59:52 55° NE 21:02:39 29° ESE
Cosmos 1500 3.4 20:59:53 43° ESE 21:00:27 47° E 21:04:05 10° NNE
Cosmos 44 3.3 20:59:27 10° NW 21:04:22 80° SW 21:06:35 35° SSE
SWARM C 4.4 21:02:39 10° N 21:05:59 78° E 21:06:30 60° SSE
SWARM A 4.1 21:02:44 10° N 21:06:05 87° E 21:06:42 57° S
Cosmos 1602 4.4 21:03:29 15° SSW 21:06:32 56° WNW 21:10:26 10° N
Cosmos 1980 Rocket 4.1 21:03:48 10° NW 21:08:05 22° WSW 21:12:20 10° SSW
SAR-Lupe-2 3.5 21:06:02 10° NNE 21:09:38 66° ESE 21:10:11 55° SSE
Cosmos 1666 3.8 21:11:57 28° E 21:11:57 28° E 21:14:50 10° NNE
Cosmos 1459 Rocket 4.1 21:08:09 27° SSE 21:11:41 63° E 21:17:59 10° NNE
Cosmos 2016 Rocket 4.4 21:13:23 31° SE 21:15:58 48° E 21:22:04 10° NNE
Cosmos 1242 Rocket 3.9 21:13:23 10° N 21:16:32 26° ENE 21:16:36 26° ENE
COSMOS 2428 4.0 21:13:47 10° NNW 21:18:53 32° NE 21:21:52 20° E
Cosmos 2221 Rocket 3.8 21:16:05 10° N 21:20:31 55° ENE 21:21:32 45° ESE
Cosmos 405 Rocket 4.2 21:17:29 10° SW 21:20:52 33° WNW 21:24:21 10° N
SL-27 R/B 2.5 21:20:03 44° SW 21:20:56 68° WNW 21:24:15 10° NNE
SPOT 5 2.7 21:19:54 38° S 21:21:29 68° WSW 21:25:54 10° NNW
Cosmos 967 Rocket 4.5 21:16:40 10° NW 21:23:03 79° SW 21:25:52 36° SSE
USA 267 3.1 21:17:06 10° ENE 21:23:40 80° SE 21:30:14 10° SW
Cosmos 1437 Rocket 3.8 21:20:26 10° NNW 21:23:58 38° W 21:25:21 27° SW
NOSS 3-2 (A) 4.2 21:21:50 10° WSW 21:27:36 54° NW 21:34:17 10° NE
Cosmos 540 Rocket 3.6 21:22:41 10° NNW 21:27:51 71° WSW 21:29:45 39° S
Lacrosse 4 Rocket 2.9 21:29:56 23° ENE 21:29:56 23° ENE 21:32:01 10° NE
Cosmos 2237 Rocket 4.2 21:24:26 10° N 21:28:28 19° NE 21:32:28 10° E
ERBS 4.2 21:26:01 10° NW 21:28:53 26° NNE 21:30:18 19° NE
Resurs 01 Rocket 4.3 21:27:52 10° WSW 21:30:03 13° W 21:32:14 10° WNW
Cosmos 1271 Rocket 4.3 21:32:22 10° NNE 21:35:26 23° ENE 21:35:26 23° ENE
NOSS 3-2 (C) 3.8 21:30:57 10° SW 21:36:46 67° NW 21:43:32 10° NE
Cosmos 2333 Rocket 2.8 21:31:54 10° NNW 21:37:30 47° NE 21:39:44 32° ESE
ERS-1 Rocket 3.7 21:36:12 27° SSW 21:38:32 45° W 21:43:22 10° NNW
Cosmos 2061 Rocket 3.9 21:37:26 38° SSE 21:39:54 70° E 21:46:04 10° NNE
Meteor 1-11 Rocket 3.7 21:42:34 44° SSE 21:44:23 69° E 21:50:09 10° NNE
Meteor 1-5 Rocket 4.3 21:42:12 30° SSW 21:45:21 83° WNW 21:51:18 10° N
Cosmos 841 Rocket 4.1 21:40:47 10° NNW 21:45:50 49° WSW 21:47:34 35° SSW
Cosmos 1066 Rocket 4.3 21:40:38 10° N 21:46:19 64° ENE 21:47:48 46° SE
Cosmos 2233 Rocket 4.5 21:45:58 38° SE 21:47:32 45° E 21:53:31 10° NNE
Cosmos 1802 Rocket 4.0 21:45:24 32° S 21:48:36 88° WNW 21:54:58 10° N
Okean 3 3.8 21:47:58 10° NNW 21:52:13 58° W 21:52:58 50° SW
COSMOS 2487 3.8 21:55:26 30° NE 21:55:26 30° NE 21:57:23 10° NNE
SL-4 R/B 2.0 21:52:05 10° WNW 21:55:52 63° N 21:55:57 63° NNE
Thor Agena Rocket 4.2 21:53:29 10° NNE 21:58:13 37° E 21:58:13 37° E
USA 234 3.4 21:58:07 41° SSE 22:00:09 57° SW 22:06:36 10° WNW
Cosmos 1816 Rocket 4.4 21:54:55 10° N 22:01:13 87° W 22:03:14 46° S
Spot 4 4.0 22:03:39 54° ESE 22:04:17 60° ENE 22:09:04 10° N
Iridium 4 Rocket 3.8 22:05:13 39° WSW 22:06:10 46° W 22:10:12 10° N
ATLAS 3B R/B 2.5 22:01:44 19° SW 22:06:42 84° SE 22:13:25 10° NE
Cosmos 1536 2.9 22:12:11 72° WNW 22:12:11 72° WNW 22:16:05 10° N
Meteor 1-23 Rocket 4.2 22:06:36 10° NNW 22:12:29 86° W 22:13:53 54° S
GENESIS II 4.5 22:09:55 10° NW 22:13:27 65° WNW 22:13:27 65° WNW
SL-16 R/B 3.9 22:09:47 10° NW 22:14:03 22° W 22:16:06 18° SW
Cosmos 2219 Rocket 2.2 22:09:49 10° NNW 22:15:32 76° ENE 22:16:46 55° SE
Cosmos 1674 Rocket 3.4 22:13:46 10° N 22:18:08 84° W 22:18:08 84° W
NOSS 0 Rocket 4.5 22:12:12 10° NNW 22:18:18 51° NE 22:20:35 35° ESE
Terra 3.2 22:19:00 25° WSW 22:20:15 29° W 22:24:24 10° NW
Cosmos 2322 3.7 22:16:57 10° NNW 22:22:37 72° WSW 22:23:34 59° S
Cosmos 1842 4.5 22:20:24 10° N 22:23:29 33° NE 22:23:29 33° NE
EO 1 Del DPAF 4.4 22:21:16 10° NNE 22:23:43 34° NE 22:23:43 34° NE
Lacrosse 5 4.0 22:22:33 10° W 22:24:47 13° WSW 22:24:47 13° WSW
Tsikada Rocket 4.2 22:20:06 10° NNW 22:26:24 67° W 22:28:15 46° SSW
Cosmos 1833 4.2 22:24:31 41° SW 22:26:32 78° WNW 22:32:15 10° NNE
MOS 1-B Rocket 3.7 22:22:48 10° NNE 22:28:27 86° WNW 22:29:54 53° SSW
Cosmos 1503 Rocket 4.4 22:29:01 48° E 22:29:01 48° E 22:33:59 10° NNE
Okean 2 4.1 22:28:12 10° N 22:31:45 47° NE 22:31:45 47° NE
Cosmos 2322 Rocket 4.0 22:28:41 10° NW 22:32:40 20° W 22:34:18 18° WSW
Meteor 2-11 Rocket 4.4 22:32:28 57° SSE 22:33:32 68° E 22:39:36 10° NNE
Geosat 3.8 22:33:13 72° S 22:33:39 79° WSW 22:38:43 10° NNW
Cosmos 1486 Rocket 3.8 22:33:50 72° SSW 22:34:22 87° ESE 22:39:37 10° NNE
Cosmos 489 Rocket 4.4 22:28:01 10° NNW 22:34:22 84° WSW 22:35:44 58° S
ALOS 2 2.8 22:35:05 60° ENE 22:35:05 60° ENE 22:39:19 10° N
Cosmos 1733 Rocket 3.5 22:34:35 51° W 22:34:58 52° WNW 22:39:19 10° N
Cosmos 2333 4.4 22:31:40 10° NW 22:37:21 57° WSW 22:38:07 52° SW
CENTAUR R/B 3.9 22:31:33 10° W 22:37:35 42° NNW 22:44:41 10° NE
SL-16 R/B 4.0 22:38:01 10° NNW 22:42:38 24° NE 22:46:18 14° E
Cosmos 1975 3.9 22:43:45 37° NE 22:43:45 37° NE 22:46:36 10° NNE
Cosmos 2360 Rocket 3.4 22:38:46 10° NW 22:43:33 29° WSW 22:44:24 28° WSW
Meteor 1-21 4.4 22:41:13 10° N 22:46:59 61° ENE 22:47:53 54° ESE
Cosmos 1242 Rocket 4.5 22:48:17 10° NW 22:50:37 23° WNW 22:50:37 23° WNW
Cosmos 773 Rocket 4.2 22:49:13 10° NNW 22:54:18 58° ENE 22:54:49 55° E
Cosmos 968 Rocket 3.5 22:58:02 63° WSW 22:58:39 70° WNW 23:03:48 10° NNE
Helios 1A 3.8 22:59:36 42° ENE 22:59:36 42° ENE 23:03:21 10° N
Cosmos 1782 Rocket 4.0 23:00:32 54° NE 23:00:32 54° NE 23:04:07 10° NNE
Cosmos 44 Rocket 3.7 22:56:28 10° NW 23:00:56 55° W 23:00:56 55° W
Cosmos 2297 Rocket 3.4 23:02:01 28° E 23:02:01 28° E 23:06:13 10° NE
Cosmos 1743 3.7 23:03:24 44° NW 23:03:24 44° NW 23:06:36 10° N
COSMOS 2428 2.9 22:57:52 10° NW 23:03:31 57° WSW 23:03:51 56° SW
Meteor 2-9 Rocket 4.2 23:03:15 65° ESE 23:03:40 67° E 23:09:23 10° NNE
Cosmos 1980 3.8 22:59:33 10° NNW 23:05:15 71° ENE 23:06:08 60° ESE
USA 267 3.9 23:00:11 10° ENE 23:06:32 54° NNW 23:12:52 10° W
Lacrosse 4 Rocket 2.6 23:06:12 35° WNW 23:06:56 38° NW 23:10:52 10° NNE
Cosmos 1908 Rocket 3.9 23:07:34 59° NW 23:07:34 59° NW 23:11:36 10° N
Cosmos 1271 Rocket 4.4 23:08:06 10° NNW 23:10:34 28° WNW 23:10:34 28° WNW
Cosmos 2219 3.9 23:13:13 39° E 23:13:13 39° E 23:18:01 10° NE
Cosmos 2237 Rocket 2.1 23:07:50 10° NNW 23:13:32 76° ENE 23:14:16 65° ESE
BREEZE-M DEB (TANK) 4.4 23:10:22 10° W 23:18:41 43° WSW 23:18:41 43° WSW
Cosmos 1544 4.5 23:21:39 37° NNW 23:21:39 37° NNW 23:24:13 10° N
Cosmos 2333 Rocket 3.1 23:16:28 10° NW 23:21:39 35° WSW 23:21:43 35° WSW
Timation 2 Rocket 3.8 23:26:06 67° SSE 23:26:37 70° ESE 23:32:37 10° NE
Cosmos 1975 Rocket 3.6 23:26:30 10° NNW 23:30:20 52° WNW 23:30:20 52° WNW
Cosmos 1300 Rocket 4.3 23:34:20 46° ENE 23:34:20 46° ENE 23:37:47 10° NNE
Cosmos 1354 Rocket 4.3 23:33:47 56° W 23:34:30 62° WNW 23:39:48 10° NNE
Cosmos 1464 Rocket 4.0 23:39:31 59° SW 23:40:37 73° W 23:46:49 10° N
Helios 1B rocket 3.9 23:42:10 10° NNE 23:45:01 30° ENE 23:45:01 30° ENE
CZ-2D R/B 4.2 23:43:51 10° NE 23:46:56 15° E 23:48:16 14° ESE
Cosmos 1707 3.8 23:44:31 10° NNW 23:47:18 44° NNW 23:47:18 44° NNW
Okean 2 Rocket 3.3 23:50:15 69° NNE 23:50:15 69° NNE 23:54:16 10° N
Nadezhda 4 Rocket 3.9 23:44:49 10° NNW 23:51:05 73° W 23:52:00 63° SSW
Okean 1 Rocket 4.4 23:51:41 30° E 23:51:41 30° E 23:55:07 10° NNE
Cosmos 2227 Rocket 2.3 23:51:25 57° ESE 23:51:31 57° ESE 23:57:05 10° NE
Cosmos 1777 Rocket 3.9 23:52:43 81° SE 23:52:48 82° ESE 23:58:08 10° NNE
Cosmos 1025 Rocket 3.4 23:49:46 10° NNW 23:53:18 59° NNW 23:53:18 59° NNW
SJ 16-02 3.0 23:55:08 25° E 23:55:08 25° E 23:58:05 10° NE
